This demonstration page uses our WeatherBlox Daily Observations layout. Learn more.

Left ArrowRight Arrow

Hourly Observations for July 16, 2018

Temp ( °F °C ) Dew Point ( °F °C ) Humidity (%) Winds ( mph kmh ) Pressure ( in mb ) Visibility ( mi km ) Precip ( " mm )
12:53 am 00:53 Clear 63 17.2 48 8.9 58 58 SSW 3 6 30.00 1016 10 16 0.00 0.00
1:53 am 01:53 Clear 59 15 46 7.8 62 62 Calm 30.01 1016 10 16 0.00 0.00
2:53 am 02:53 Clear 56 13.3 46 7.8 70 70 Calm 30.01 1016 10 16 0.00 0.00
3:53 am 03:53 Clear 54 12.2 47 8.3 77 77 Calm 30.02 1017 10 16 0.00 0.00
4:53 am 04:53 Clear 50 10 45 7.2 83 83 SW 5 7 30.03 1017 10 16 0.00 0.00
5:53 am 05:53 Sunny 50 10 44 6.7 80 80 NW 5 7 30.04 1017 10 16 0.00 0.00
6:53 am 06:53 Sunny 54 12.2 47 8.3 77 77 SSE 5 7 30.05 1018 10 16 0.00 0.00
7:53 am 07:53 Sunny 61 16.1 47 8.3 60 60 ENE 3 6 30.05 1018 10 16 0.00 0.00
8:53 am 08:53 Sunny 67 19.4 46 7.8 47 47 ENE 6 9 30.05 1018 10 16 0.00 0.00
9:53 am 09:53 Sunny 73 22.8 48 8.9 41 41 E 6 9 30.05 1018 10 16 0.00 0.00
10:53 am 10:53 Sunny 79 26.1 48 8.9 34 34 ENE 8 13 30.03 1017 10 16 0.00 0.00
11:53 am 11:53 Sunny 83 28.3 47 8.3 28 28 E 10 17 30.02 1017 10 16 0.00 0.00
12:53 pm 12:53 Sunny 88 31.1 42 5.6 20 20 ENE 10 17 30.00 1016 10 16 0.00 0.00
1:53 pm 13:53 Sunny 89 31.7 41 5 19 19 VRB 3 6 29.99 1016 10 16 0.00 0.00
2:53 pm 14:53 Sunny 92 33.3 42 5.6 18 18 VRB 3 6 29.98 1015 10 16 0.00 0.00
3:53 pm 15:53 Sunny 93 33.9 42 5.6 17 17 E 9 15 29.97 1015 10 16 0.00 0.00
4:53 pm 16:53 Sunny 91 32.8 42 5.6 18 18 W 3 6 29.96 1015 10 16 0.00 0.00
5:53 pm 17:53 Sunny 92 33.3 43 6.1 18 18 E 8 13 29.95 1014 10 16 0.00 0.00
6:53 pm 18:53 Sunny 92 33.3 42 5.6 18 18 ENE 6 9 29.93 1014 10 16 0.00 0.00
7:53 pm 19:53 Sunny 88 31.1 43 6.1 21 21 E 12 19 29.93 1014 10 16 0.00 0.00
8:53 pm 20:53 Sunny 83 28.3 44 6.7 25 25 E 9 15 29.93 1014 10 16 0.00 0.00
9:53 pm 21:53 Clear 80 26.7 44 6.7 28 28 E 13 20 29.94 1014 10 16 0.00 0.00
10:53 pm 22:53 Clear 76 24.4 43 6.1 31 31 E 12 19 29.94 1014 10 16 0.00 0.00
11:53 pm 23:53 Clear 75 23.9 43 6.1 32 32 ENE 10 17 29.93 1014 10 16 0.00 0.00

Powered by AerisWeather